Weather in Rawalpindi

Pakistan     33°34′15″N   73°01′48″E
temp.,
°C
wind,
m/s
gust,
m/s
humid.,
%
clouds,
%
prec.,
mm/h
press.,
hPa
HPBL,
m
22 january, sat
sat2223:00+11ene2366100 0.0 101176
02:00+11n2274100 2.2 101037
05:00+10n1287100 4.5 1010127
08:00+11ne5978100 2.0 1009445
11:00+11e71176100 4.3 1011989
14:00+12e6872100 0.1 1008551
17:00+9n2388100 2.1 1009312
20:00+9nnw2393100 2.4 1011173
23 january, sun
sun2323:00+9ne2488100 4.1 1011243
02:00+9nnw4589100 1.8 1010224
05:00+8nnw1291100 3.6 1010183
08:00+9nnw1290100 1.2 1012155
11:00+9ne1287100 1.9 1014197
14:00+10ne2480100 0.3 1012364
17:00+10e2483100 0.3 1013191
20:00+9ne2586100 0.3 1015228
24 january, mon
mon2423:00+10nne2379100 0.3 101582
02:00+9nnw2387100 0.9 1015116
05:00+9nw358670 1.6 1014150
08:00+10nw237971 0.0 101690
11:00+13nnw116160 0.0 1017689
14:00+15nw215218 0.0 10141281
17:00+13nw33612 0.0 1014162
20:00+10nw34762 0.0 101663
25 january, tue
tue2523:00+9nw22781 0.0 101617
02:00+8nnw11802 0.0 101610
05:00+8nnw12810 0.0 101510
08:00+8nw11780 0.0 101618
11:00+13wnw22570 0.0 1017550
14:00+16w21450 0.0 10141136
17:00+14wnw44540 0.0 1013189
20:00+11nw33560 0.0 101661
26 january, wed
wed2623:00+9nnw22591 0.0 101614
02:00+8nnw12665 0.0 101610
05:00+8nw22705 0.0 101510
08:00+8nw22685 0.0 101633
11:00+14wnw33465 0.0 1016570
14:00+16wnw44395 0.0 1014947
17:00+13wnw46440 0.0 1014228
20:00+10nw35350 0.0 101699